,,,PA_Meas_PMT16A,,PR_Meas_QMR101_102,,RH_Meas_QMH101,,SR_Meas_QMS101,,TA_Meas_QMH101,,GenWind,,GenWind,
date,time,status,PA,status,PR,status,RH,status,SR,status,TA,status,DirAvg,status,SpdAvg,
2009-04-25, 00:00:04,VALID,1001.99,VALID,0,VALID,94.3097,VALID,0,VALID,22.903,VALID,78,VALID,0.242188,
2009-04-25, 00:01:04,VALID,1001.98,VALID,0,VALID,94.2868,VALID,0,VALID,22.9225,VALID,78,VALID,0.359375,
2009-04-25, 00:02:04,VALID,1001.97,VALID,0,VALID,94.264,VALID,0,VALID,22.903,VALID,42,VALID,0.635547,
2009-04-25, 00:03:04,VALID,1001.99,VALID,0,VALID,94.2563,VALID,0,VALID,22.9225,VALID,28,VALID,0.814844,
2009-04-25, 00:04:04,VALID,1001.94,VALID,0,VALID,94.2487,VALID,0,VALID,22.9225,VALID,28,VALID,0.805859,
2009-04-25, 00:05:04,VALID,1001.98,VALID,0,VALID,94.2258,VALID,0,VALID,22.9225,VALID,28,VALID,0.697266,
2009-04-25, 00:06:04,VALID,1001.98,VALID,0,VALID,94.2182,VALID,0,VALID,22.9225,VALID,28,VALID,0.691797,
2009-04-25, 00:07:04,VALID,1001.93,VALID,0,VALID,94.2487,VALID,0,VALID,22.9225,VALID,28,VALID,0.614453,
2009-04-25, 00:08:04,VALID,1001.94,VALID,0,VALID,94.2716,VALID,0,VALID,22.8818,VALID,28,VALID,0.410937,
2009-04-25, 00:09:04,VALID,1001.95,VALID,0,VALID,94.2945,VALID,0,VALID,22.8835,VALID,28,VALID,0.239453,
2009-04-25, 00:10:04,VALID,1001.93,VALID,0,VALID,94.3326,VALID,0,VALID,22.8427,VALID,28,VALID,0.0800781,
2009-04-25, 00:11:04,VALID,1001.96,VALID,0,VALID,94.3784,VALID,0,VALID,22.8445,VALID,28,VALID,0.144531,
2009-04-25, 00:12:04,VALID,1001.91,VALID,0,VALID,94.4394,VALID,0,VALID,22.8427,VALID,28,VALID,0.28125,
2009-04-25, 00:13:04,VALID,1001.9,VALID,0,VALID,94.5157,VALID,0,VALID,22.8445,VALID,28,VALID,0.380859,
2009-04-25, 00:14:04,VALID,1001.9,VALID,0,VALID,94.5768,VALID,0,VALID,22.8427,VALID,28,VALID,0.517187,
2009-04-25, 00:15:04,VALID,1001.91,VALID,0,VALID,94.592,VALID,0,VALID,22.8232,VALID,28,VALID,0.540234,
2009-04-25, 00:16:04,VALID,1001.9,VALID,0,VALID,94.6531,VALID,0,VALID,22.864,VALID,28,VALID,0.464453,
2009-04-25, 00:17:04,VALID,1001.91,VALID,0,VALID,94.676,VALID,0,VALID,22.8623,VALID,28,VALID,0.283594,
2009-04-25, 00:18:04,VALID,1001.92,VALID,0,VALID,94.6378,VALID,0,VALID,22.8835,VALID,28,VALID,0.186328,
2009-04-25, 00:19:04,VALID,1001.94,VALID,0,VALID,94.6378,VALID,0,VALID,22.8835,VALID,28,VALID,0.0945313,
2009-04-25, 00:20:04,VALID,1001.94,VALID,0,VALID,94.6607,VALID,0,VALID,22.8427,VALID,28,VALID,0,
2009-04-25, 00:21:04,VALID,1001.94,VALID,0,VALID,94.7065,VALID,0,VALID,22.8427,VALID,28,VALID,0,
2009-04-25, 00:22:04,VALID,1001.97,VALID,0,VALID,94.7751,VALID,0,VALID,22.8623,VALID,28,VALID,0,
2009-04-25, 00:23:04,VALID,1001.94,VALID,0,VALID,94.8057,VALID,0,VALID,22.8835,VALID,28,VALID,0,
2009-04-25, 00:24:04,VALID,1001.95,VALID,0,VALID,94.8209,VALID,0,VALID,22.8835,VALID,28,VALID,0.458984,
2009-04-25, 00:25:04,VALID,1001.96,VALID,0,VALID,94.8209,VALID,0,VALID,22.8835,VALID,30,VALID,0.542969,
2009-04-25, 00:26:04,VALID,1001.96,VALID,0,VALID,94.8667,VALID,0,VALID,22.903,VALID,104,VALID,0.799219,
2009-04-25, 00:27:04,VALID,1001.96,VALID,0,VALID,94.9125,VALID,0,VALID,22.9225,VALID,107,VALID,0.914844,
2009-04-25, 00:28:04,VALID,1001.96,VALID,0,VALID,94.8972,VALID,0,VALID,22.9208,VALID,108,VALID,0.560938,
2009-04-25, 00:29:04,VALID,1001.94,VALID,0,VALID,94.9048,VALID,0,VALID,22.9208,VALID,106,VALID,0.575391,
2009-04-25, 00:30:04,VALID,1001.93,VALID,0,VALID,94.9048,VALID,0,VALID,22.9615,VALID,101,VALID,0.934766,
2009-04-25, 00:31:04,VALID,1001.9,VALID,0,VALID,94.882,VALID,0,VALID,22.9403,VALID,101,VALID,0.934766,
2009-04-25, 00:32:04,VALID,1001.86,VALID,0,VALID,94.8514,VALID,0,VALID,22.9598,VALID,112,VALID,0.461328,
2009-04-25, 00:33:04,VALID,1001.85,VALID,0,VALID,94.8438,VALID,0,VALID,22.9615,VALID,130,VALID,0.667188,
2009-04-25, 00:34:04,VALID,1001.85,VALID,0,VALID,94.8896,VALID,0,VALID,22.9598,VALID,133,VALID,0.903125,
2009-04-25, 00:35:04,VALID,1001.81,VALID,0,VALID,94.9354,VALID,0,VALID,22.9793,VALID,133,VALID,1.16367,
2009-04-25, 00:36:04,VALID,1001.82,VALID,0,VALID,94.9277,VALID,0,VALID,23.0201,VALID,127,VALID,0.594922,
2009-04-25, 00:37:04,VALID,1001.82,VALID,0,VALID,94.9048,VALID,0,VALID,23.0183,VALID,149,VALID,0.400781,
2009-04-25, 00:38:04,VALID,1001.83,VALID,0,VALID,94.9125,VALID,0.112286,VALID,23.0183,VALID,171,VALID,0.144922,
2009-04-25, 00:39:04,VALID,1001.79,VALID,0,VALID,94.8896,VALID,0,VALID,23.0396,VALID,141,VALID,0.576172,
2009-04-25, 00:40:04,VALID,1001.76,VALID,0,VALID,94.882,VALID,0,VALID,22.9988,VALID,127,VALID,0.995703,
2009-04-25, 00:41:04,VALID,1001.74,VALID,0,VALID,94.8667,VALID,0,VALID,23.0183,VALID,128,VALID,0.940625,
2009-04-25, 00:42:04,VALID,1001.74,VALID,0,VALID,94.882,VALID,0,VALID,23.0378,VALID,132,VALID,0.558594,
2009-04-25, 00:43:04,VALID,1001.77,VALID,0,VALID,94.8743,VALID,0,VALID,23.0378,VALID,154,VALID,0.295703,
2009-04-25, 00:44:04,VALID,1001.72,VALID,0,VALID,94.9125,VALID,0,VALID,23.0378,VALID,155,VALID,0.323828,
2009-04-25, 00:45:04,VALID,1001.7,VALID,0,VALID,94.9201,VALID,0,VALID,23.0786,VALID,172,VALID,0.514453,
2009-04-25, 00:46:04,VALID,1001.71,VALID,0,VALID,94.9888,VALID,0,VALID,23.1354,VALID,185,VALID,0.926562,
2009-04-25, 00:47:04,VALID,1001.72,VALID,0,VALID,94.9888,VALID,0,VALID,23.1549,VALID,198,VALID,0.936328,
2009-04-25, 00:48:04,VALID,1001.72,VALID,0,VALID,94.943,VALID,0,VALID,23.1744,VALID,178,VALID,0.513281,
2009-04-25, 00:49:04,VALID,1001.74,VALID,0,VALID,94.9201,VALID,0,VALID,23.1957,VALID,245,VALID,1.08203,
2009-04-25, 00:50:04,VALID,1001.74,VALID,0,VALID,94.9048,VALID,0,VALID,23.1939,VALID,239,VALID,1.00664,
2009-04-25, 00:51:04,VALID,1001.71,VALID,0,VALID,94.9201,VALID,0,VALID,23.2329,VALID,209,VALID,0.358594,
2009-04-25, 00:52:04,VALID,1001.69,VALID,0,VALID,94.8896,VALID,0,VALID,23.2542,VALID,123,VALID,0.885547,
2009-04-25, 00:53:04,VALID,1001.71,VALID,0,VALID,94.6302,VALID,0.112286,VALID,23.1939,VALID,64,VALID,1.03281,
2009-04-25, 00:54:04,VALID,1001.68,VALID,0,VALID,94.5997,VALID,0.112286,VALID,23.1354,VALID,71,VALID,1.45938,
2009-04-25, 00:55:04,VALID,1001.67,VALID,0,VALID,94.6073,VALID,0.112286,VALID,23.0946,VALID,69,VALID,1.28437,
2009-04-25, 00:56:04,VALID,1001.7,VALID,0,VALID,94.5157,VALID,0.112286,VALID,23.0964,VALID,51,VALID,0.882422,
2009-04-25, 00:57:04,VALID,1001.68,VALID,0,VALID,94.4242,VALID,0,VALID,23.0378,VALID,35,VALID,0.847266,
2009-04-25, 00:58:04,VALID,1001.71,VALID,0,VALID,94.3555,VALID,0.112286,VALID,22.9988,VALID,22,VALID,0.932813,
2009-04-25, 00:59:04,VALID,1001.74,VALID,0,VALID,94.3708,VALID,0.112286,VALID,22.9385,VALID,22,VALID,0.839453,
2009-04-25, 01:00:04,VALID,1001.7,VALID,0,VALID,94.4089,VALID,0.112286,VALID,22.88,VALID,46,VALID,0.848047,
2009-04-25, 01:01:04,VALID,1001.69,VALID,0,VALID,94.5081,VALID,0.112286,VALID,22.8818,VALID,72,VALID,0.931641,
2009-04-25, 01:02:04,VALID,1001.68,VALID,0,VALID,94.6226,VALID,0.112286,VALID,22.8605,VALID,87,VALID,0.758203,
2009-04-25, 01:03:04,VALID,1001.66,VALID,0,VALID,94.6683,VALID,0,VALID,22.8818,VALID,91,VALID,0.508594,
2009-04-25, 01:04:04,VALID,1001.67,VALID,0,VALID,94.7141,VALID,0.112286,VALID,22.8605,VALID,80,VALID,0.310937,
2009-04-25, 01:05:04,VALID,1001.67,VALID,0,VALID,94.6836,VALID,0,VALID,22.8605,VALID,80,VALID,0.132031,
2009-04-25, 01:06:04,VALID,1001.62,VALID,0,VALID,94.6836,VALID,0.112286,VALID,22.8605,VALID,299,VALID,0.551562,
2009-04-25, 01:07:04,VALID,1001.61,VALID,0,VALID,94.7065,VALID,0,VALID,22.8818,VALID,286,VALID,0.301953,
2009-04-25, 01:08:04,VALID,1001.59,VALID,0,VALID,94.7217,VALID,0,VALID,22.8835,VALID,286,VALID,0.131641,
2009-04-25, 01:09:04,VALID,1001.56,VALID,0,VALID,94.7294,VALID,0,VALID,22.8835,VALID,285,VALID,0.130469,
2009-04-25, 01:10:04,VALID,1001.56,VALID,0,VALID,94.8591,VALID,0,VALID,22.903,VALID,104,VALID,1.18164,
2009-04-25, 01:11:04,VALID,1001.56,VALID,0,VALID,94.8667,VALID,0,VALID,22.9225,VALID,138,VALID,0.778125,
2009-04-25, 01:12:04,VALID,1001.57,VALID,0,VALID,94.8514,VALID,0,VALID,22.942,VALID,124,VALID,0.705859,
2009-04-25, 01:13:04,VALID,1001.57,VALID,0,VALID,94.8362,VALID,0,VALID,22.9598,VALID,139,VALID,0.165625,
2009-04-25, 01:14:04,VALID,1001.56,VALID,0,VALID,94.8133,VALID,0,VALID,22.9811,VALID,139,VALID,0.00664063,
2009-04-25, 01:15:04,VALID,1001.55,VALID,0,VALID,94.798,VALID,0,VALID,22.9811,VALID,322,VALID,1.04727,
2009-04-25, 01:16:04,VALID,1001.55,VALID,0,VALID,94.7904,VALID,0,VALID,22.9615,VALID,325,VALID,0.946875,
2009-04-25, 01:17:04,VALID,1001.52,VALID,0,VALID,94.7751,VALID,0,VALID,22.9615,VALID,328,VALID,0.670703,
2009-04-25, 01:18:04,VALID,1001.5,VALID,0,VALID,94.7751,VALID,0,VALID,22.9615,VALID,331,VALID,0.579297,
2009-04-25, 01:19:04,VALID,1001.44,VALID,0,VALID,94.737,VALID,0,VALID,22.9403,VALID,352,VALID,0.544531,
2009-04-25, 01:20:04,VALID,1001.43,VALID,0,VALID,94.7446,VALID,0,VALID,22.9208,VALID,352,VALID,0.399609,
2009-04-25, 01:21:04,VALID,1001.42,VALID,0,VALID,94.7446,VALID,0,VALID,22.9225,VALID,352,VALID,0.313672,
2009-04-25, 01:22:04,VALID,1001.39,VALID,0,VALID,94.7599,VALID,0,VALID,22.903,VALID,352,VALID,0.0667969,
2009-04-25, 01:23:04,VALID,1001.39,VALID,0,VALID,94.8057,VALID,0,VALID,22.9013,VALID,352,VALID,0.2125,
2009-04-25, 01:24:04,VALID,1001.36,VALID,0,VALID,94.8285,VALID,0,VALID,22.9013,VALID,139,VALID,0.942187,
2009-04-25, 01:25:04,VALID,1001.35,VALID,0,VALID,94.8514,VALID,0,VALID,22.9208,VALID,131,VALID,1.20938,
2009-04-25, 01:26:04,VALID,1001.39,VALID,0,VALID,94.8514,VALID,0,VALID,22.9811,VALID,133,VALID,0.335547,
2009-04-25, 01:27:04,VALID,1001.36,VALID,0,VALID,94.8057,VALID,0,VALID,22.9811,VALID,182,VALID,0.332031,
2009-04-25, 01:28:04,VALID,1001.35,VALID,0,VALID,94.7828,VALID,0,VALID,22.9811,VALID,187,VALID,0.372656,
2009-04-25, 01:29:04,VALID,1001.34,VALID,0,VALID,94.7751,VALID,0,VALID,22.9811,VALID,187,VALID,0.265234,
2009-04-25, 01:30:04,VALID,1001.38,VALID,0,VALID,94.7446,VALID,0,VALID,22.9811,VALID,187,VALID,0.0175781,
2009-04-25, 01:31:04,VALID,1001.36,VALID,0,VALID,94.7523,VALID,0,VALID,22.9811,VALID,187,VALID,0.167578,
2009-04-25, 01:32:04,VALID,1001.35,VALID,0,VALID,94.5615,VALID,0,VALID,22.942,VALID,86,VALID,1.01602,
2009-04-25, 01:33:04,VALID,1001.33,VALID,0,VALID,94.4852,VALID,0,VALID,22.942,VALID,80,VALID,0.984766,
2009-04-25, 01:34:04,VALID,1001.32,VALID,0,VALID,94.3403,VALID,0,VALID,22.9013,VALID,99,VALID,0.689453,
2009-04-25, 01:35:04,VALID,1001.33,VALID,0,VALID,94.0351,VALID,0,VALID,22.9013,VALID,117,VALID,0.882031,
2009-04-25, 01:36:04,VALID,1001.36,VALID,0,VALID,93.768,VALID,0,VALID,22.942,VALID,90,VALID,0.846875,
2009-04-25, 01:37:04,VALID,1001.35,VALID,0,VALID,93.3637,VALID,0,VALID,22.9615,VALID,95,VALID,0.901563,
2009-04-25, 01:38:04,VALID,1001.28,VALID,0,VALID,93.0585,VALID,0,VALID,23.0201,VALID,92,VALID,0.971875,
2009-04-25, 01:39:04,VALID,1001.28,VALID,0,VALID,92.9364,VALID,0,VALID,23.0396,VALID,86,VALID,0.967188,
2009-04-25, 01:40:04,VALID,1001.29,VALID,0,VALID,92.883,VALID,0,VALID,23.0396,VALID,80,VALID,0.869141,
2009-04-25, 01:41:04,VALID,1001.29,VALID,0,VALID,92.8448,VALID,0,VALID,23.0183,VALID,68,VALID,0.773438,
2009-04-25, 01:42:04,VALID,1001.3,VALID,0,VALID,92.7457,VALID,0,VALID,23.0396,VALID,52,VALID,1.01016,
2009-04-25, 01:43:04,VALID,1001.26,VALID,0,VALID,92.5931,VALID,0,VALID,23.0396,VALID,43,VALID,1.33828,
2009-04-25, 01:44:04,VALID,1001.34,VALID,0,VALID,92.532,VALID,0,VALID,23.0591,VALID,60,VALID,1.48398,
2009-04-25, 01:45:04,VALID,1001.31,VALID,0,VALID,92.616,VALID,0,VALID,23.1176,VALID,60,VALID,1.01836,
2009-04-25, 01:46:04,VALID,1001.32,VALID,0,VALID,92.5854,VALID,0,VALID,23.1371,VALID,47,VALID,1.39727,
2009-04-25, 01:47:04,VALID,1001.32,VALID,0,VALID,92.326,VALID,0,VALID,23.1159,VALID,43,VALID,1.42617,
2009-04-25, 01:48:04,VALID,1001.3,VALID,0,VALID,91.9598,VALID,0,VALID,23.1176,VALID,58,VALID,1.42031,
2009-04-25, 01:49:04,VALID,1001.29,VALID,0,VALID,92.4939,VALID,0,VALID,23.1176,VALID,61,VALID,0.765234,
2009-04-25, 01:50:04,VALID,1001.33,VALID,0,VALID,92.6923,VALID,0,VALID,23.0981,VALID,38,VALID,0.405078,
2009-04-25, 01:51:04,VALID,1001.31,VALID,0,VALID,92.8983,VALID,0,VALID,23.0786,VALID,312,VALID,0.897266,
2009-04-25, 01:52:04,VALID,1001.33,VALID,0,VALID,93.1653,VALID,0,VALID,23.0378,VALID,306,VALID,0.627344,
2009-04-25, 01:53:04,VALID,1001.31,VALID,0,VALID,93.3255,VALID,0,VALID,23.0591,VALID,305,VALID,0.332031,
2009-04-25, 01:54:04,VALID,1001.32,VALID,0,VALID,92.7914,VALID,0,VALID,23.0006,VALID,127,VALID,0.978125,
2009-04-25, 01:55:04,VALID,1001.3,VALID,0,VALID,92.5015,VALID,0,VALID,22.9811,VALID,119,VALID,1.30742,
2009-04-25, 01:56:04,VALID,1001.33,VALID,0,VALID,92.5854,VALID,0,VALID,23.0006,VALID,116,VALID,0.358984,
2009-04-25, 01:57:04,VALID,1001.36,VALID,0,VALID,92.6007,VALID,0,VALID,23.0201,VALID,119,VALID,0.369922,
2009-04-25, 01:58:04,VALID,1001.33,VALID,0,VALID,92.5854,VALID,0,VALID,23.0006,VALID,136,VALID,0.603906,
2009-04-25, 01:59:04,VALID,1001.31,VALID,0,VALID,92.6541,VALID,0,VALID,23.0006,VALID,126,VALID,0.79375,
2009-04-25, 02:00:04,VALID,1001.31,VALID,0,VALID,92.7457,VALID,0,VALID,23.0201,VALID,146,VALID,0.2625,
2009-04-25, 02:01:04,VALID,1001.29,VALID,0,VALID,92.8754,VALID,0,VALID,23.0201,VALID,127,VALID,0.608203,
2009-04-25, 02:02:04,VALID,1001.27,VALID,0,VALID,92.7457,VALID,0,VALID,23.0201,VALID,101,VALID,0.966406,
2009-04-25, 02:03:04,VALID,1001.26,VALID,0,VALID,92.3566,VALID,0,VALID,23.0378,VALID,103,VALID,1.20703,
2009-04-25, 02:04:04,VALID,1001.25,VALID,0,VALID,92.0132,VALID,0,VALID,23.1176,VALID,110,VALID,1.11094,
2009-04-25, 02:05:04,VALID,1001.23,VALID,0,VALID,91.9293,VALID,0,VALID,23.1566,VALID,124,VALID,1.26641,
2009-04-25, 02:06:04,VALID,1001.27,VALID,0,VALID,91.9674,VALID,0,VALID,23.1957,VALID,95,VALID,0.553516,
2009-04-25, 02:07:04,VALID,1001.24,VALID,0,VALID,91.9064,VALID,0,VALID,23.1957,VALID,44,VALID,0.581641,
2009-04-25, 02:08:04,VALID,1001.23,VALID,0,VALID,91.8683,VALID,0,VALID,23.1762,VALID,38,VALID,0.737891,
2009-04-25, 02:09:04,VALID,1001.23,VALID,0,VALID,92.059,VALID,0,VALID,23.1762,VALID,56,VALID,0.653516,
2009-04-25, 02:10:04,VALID,1001.22,VALID,0,VALID,91.998,VALID,0,VALID,23.1566,VALID,70,VALID,0.701563,
2009-04-25, 02:11:04,VALID,1001.24,VALID,0,VALID,92.0437,VALID,0,VALID,23.1371,VALID,56,VALID,0.643359,
2009-04-25, 02:12:04,VALID,1001.24,VALID,0,VALID,91.8606,VALID,0,VALID,23.1176,VALID,56,VALID,0.560938,
2009-04-25, 02:13:04,VALID,1001.23,VALID,0,VALID,91.3494,VALID,0,VALID,23.0981,VALID,52,VALID,1.11875,
2009-04-25, 02:14:04,VALID,1001.22,VALID,0,VALID,91.4563,VALID,0,VALID,23.0981,VALID,59,VALID,0.647266,
2009-04-25, 02:15:04,VALID,1001.23,VALID,0,VALID,91.5478,VALID,0,VALID,23.1176,VALID,48,VALID,0.520312,
2009-04-25, 02:16:04,VALID,1001.23,VALID,0,VALID,91.8454,VALID,0,VALID,23.0981,VALID,48,VALID,0.256641,
2009-04-25, 02:17:04,VALID,1001.22,VALID,0,VALID,92.0971,VALID,0,VALID,23.0786,VALID,48,VALID,0,
2009-04-25, 02:18:04,VALID,1001.23,VALID,0,VALID,92.265,VALID,0,VALID,23.0591,VALID,48,VALID,0.0078125,
2009-04-25, 02:19:04,VALID,1001.24,VALID,0,VALID,92.265,VALID,0,VALID,23.0396,VALID,85,VALID,0.517969,
2009-04-25, 02:20:04,VALID,1001.24,VALID,0,VALID,92.3871,VALID,0,VALID,22.9988,VALID,108,VALID,0.396484,
2009-04-25, 02:21:04,VALID,1001.25,VALID,0,VALID,92.3794,VALID,0,VALID,23.0201,VALID,108,VALID,0.0945313,
2009-04-25, 02:22:04,VALID,1001.25,VALID,0,VALID,92.4557,VALID,0,VALID,23.0006,VALID,108,VALID,0.533203,
2009-04-25, 02:23:04,VALID,1001.26,VALID,0,VALID,92.4634,VALID,0,VALID,23.0006,VALID,103,VALID,0.202344,
2009-04-25, 02:24:04,VALID,1001.25,VALID,0,VALID,92.532,VALID,0,VALID,22.9793,VALID,103,VALID,0,
2009-04-25, 02:25:04,VALID,1001.25,VALID,0,VALID,92.6999,VALID,0,VALID,23.0006,VALID,103,VALID,0.221484,
2009-04-25, 02:26:04,VALID,1001.24,VALID,0,VALID,92.7762,VALID,0,VALID,22.9988,VALID,103,VALID,0.0390625,
2009-04-25, 02:27:04,VALID,1001.24,VALID,0,VALID,92.7991,VALID,0,VALID,22.9793,VALID,103,VALID,0,
2009-04-25, 02:28:04,VALID,1001.26,VALID,0,VALID,92.8677,VALID,0,VALID,22.9793,VALID,103,VALID,0,
2009-04-25, 02:29:04,VALID,1001.23,VALID,0,VALID,92.9669,VALID,0,VALID,22.9811,VALID,103,VALID,0,
2009-04-25, 02:30:04,VALID,1001.21,VALID,0,VALID,93.1653,VALID,0,VALID,22.9811,VALID,103,VALID,0,
2009-04-25, 02:31:04,VALID,1001.23,VALID,0,VALID,93.2263,VALID,0,VALID,22.942,VALID,103,VALID,0,
2009-04-25, 02:32:04,VALID,1001.19,VALID,0,VALID,93.2721,VALID,0,VALID,22.9615,VALID,103,VALID,0,
2009-04-25, 02:33:04,VALID,1001.21,VALID,0,VALID,93.3331,VALID,0,VALID,22.9811,VALID,103,VALID,0,
2009-04-25, 02:34:04,VALID,1001.21,VALID,0,VALID,93.3255,VALID,0,VALID,22.9598,VALID,103,VALID,0.342187,
2009-04-25, 02:35:04,VALID,1001.17,VALID,0,VALID,93.3637,VALID,0,VALID,22.9793,VALID,22,VALID,0.523047,
2009-04-25, 02:36:04,VALID,1001.22,VALID,0,VALID,93.3331,VALID,0,VALID,22.9988,VALID,349,VALID,0.462891,
2009-04-25, 02:37:04,VALID,1001.22,VALID,0,VALID,93.3789,VALID,0,VALID,23.0201,VALID,349,VALID,0.282813,
2009-04-25, 02:38:04,VALID,1001.22,VALID,0,VALID,93.356,VALID,0,VALID,23.0201,VALID,349,VALID,0.0597656,
2009-04-25, 02:39:04,VALID,1001.21,VALID,0,VALID,93.3942,VALID,0,VALID,22.9988,VALID,349,VALID,0.231641,
2009-04-25, 02:40:04,VALID,1001.19,VALID,0,VALID,93.4247,VALID,0,VALID,22.9988,VALID,89,VALID,0.669922,
2009-04-25, 02:41:04,VALID,1001.21,VALID,0,VALID,93.3484,VALID,0,VALID,23.0201,VALID,89,VALID,0.694141,
2009-04-25, 02:42:04,VALID,1001.22,VALID,0,VALID,93.2492,VALID,0,VALID,23.0201,VALID,89,VALID,0.374219,
2009-04-25, 02:43:04,VALID,1001.22,VALID,0,VALID,93.15,VALID,0,VALID,23.0591,VALID,89,VALID,0.267578,
2009-04-25, 02:44:04,VALID,1001.22,VALID,0,VALID,93.0508,VALID,0,VALID,23.0573,VALID,89,VALID,0.182812,
2009-04-25, 02:45:05,VALID,1001.24,VALID,0,VALID,93.0585,VALID,0,VALID,23.1194,VALID,89,VALID,0.285156,
2009-04-25, 02:46:05,VALID,1001.22,VALID,0,VALID,93.0737,VALID,0,VALID,23.1176,VALID,89,VALID,0.229297,
2009-04-25, 02:47:05,VALID,1001.22,VALID,0,VALID,93.1729,VALID,0,VALID,23.1176,VALID,89,VALID,0.342187,
2009-04-25, 02:48:05,VALID,1001.24,VALID,0,VALID,93.1577,VALID,0,VALID,23.0769,VALID,89,VALID,0.217187,
2009-04-25, 02:49:05,VALID,1001.24,VALID,0,VALID,93.2111,VALID,0,VALID,23.0786,VALID,89,VALID,0.0425781,
2009-04-25, 02:50:05,VALID,1001.22,VALID,0,VALID,93.2874,VALID,0,VALID,23.0786,VALID,89,VALID,0.0183594,
2009-04-25, 02:51:05,VALID,1001.23,VALID,0,VALID,93.356,VALID,0,VALID,23.0591,VALID,89,VALID,0.410937,
2009-04-25, 02:52:05,VALID,1001.2,VALID,0,VALID,93.5849,VALID,0,VALID,23.0591,VALID,88,VALID,0.848437,
2009-04-25, 02:53:05,VALID,1001.18,VALID,0,VALID,93.6002,VALID,0,VALID,23.0591,VALID,95,VALID,1.12852,
2009-04-25, 02:54:05,VALID,1001.21,VALID,0,VALID,93.4934,VALID,0,VALID,23.0573,VALID,87,VALID,1.19531,
2009-04-25, 02:55:05,VALID,1001.21,VALID,0,VALID,93.0661,VALID,0,VALID,23.0981,VALID,78,VALID,1.29922,
2009-04-25, 02:56:05,VALID,1001.24,VALID,0,VALID,92.7457,VALID,0,VALID,23.1371,VALID,78,VALID,0.850781,
2009-04-25, 02:57:05,VALID,1001.23,VALID,0,VALID,92.4328,VALID,0,VALID,23.1566,VALID,63,VALID,0.782031,
2009-04-25, 02:58:05,VALID,1001.25,VALID,0,VALID,92.2879,VALID,0,VALID,23.1762,VALID,62,VALID,0.888281,
2009-04-25, 02:59:05,VALID,1001.25,VALID,0,VALID,92.0361,VALID,0,VALID,23.1549,VALID,42,VALID,1.03594,
2009-04-25, 03:00:05,VALID,1001.26,VALID,0,VALID,92.0361,VALID,0,VALID,23.1762,VALID,42,VALID,1.13203,
2009-04-25, 03:01:05,VALID,1001.27,VALID,0,VALID,92.1124,VALID,0,VALID,23.1957,VALID,42,VALID,0.641016,
2009-04-25, 03:02:05,VALID,1001.26,VALID,0,VALID,92.2345,VALID,0,VALID,23.1762,VALID,52,VALID,0.649219,
2009-04-25, 03:03:05,VALID,1001.27,VALID,0,VALID,92.41,VALID,0,VALID,23.1762,VALID,52,VALID,0.555078,
2009-04-25, 03:04:05,VALID,1001.25,VALID,0,VALID,92.6999,VALID,0,VALID,23.1566,VALID,54,VALID,0.592969,
2009-04-25, 03:05:05,VALID,1001.21,VALID,0,VALID,92.8525,VALID,0,VALID,23.1566,VALID,54,VALID,0.301562,
2009-04-25, 03:06:05,VALID,1001.21,VALID,0,VALID,92.9059,VALID,0,VALID,23.1159,VALID,54,VALID,0.08125,
2009-04-25, 03:07:05,VALID,1001.21,VALID,0,VALID,93.0051,VALID,0,VALID,23.1176,VALID,54,VALID,0.0515625,
2009-04-25, 03:08:05,VALID,1001.19,VALID,0,VALID,93.089,VALID,0,VALID,23.0786,VALID,54,VALID,0.170312,
2009-04-25, 03:09:05,VALID,1001.19,VALID,0,VALID,93.1195,VALID,0,VALID,23.0591,VALID,54,VALID,0.241016,
2009-04-25, 03:10:05,VALID,1001.19,VALID,0,VALID,93.1424,VALID,0,VALID,23.0183,VALID,77,VALID,0.569922,
2009-04-25, 03:11:05,VALID,1001.19,VALID,0,VALID,93.0508,VALID,0,VALID,23.0201,VALID,52,VALID,0.367969,
2009-04-25, 03:12:05,VALID,1001.2,VALID,0,VALID,92.944,VALID,0,VALID,23.0201,VALID,49,VALID,0.416406,
2009-04-25, 03:13:05,VALID,1001.23,VALID,0,VALID,92.7228,VALID,0,VALID,23.0201,VALID,49,VALID,0.439063,
2009-04-25, 03:14:05,VALID,1001.22,VALID,0,VALID,92.7457,VALID,0,VALID,23.0201,VALID,49,VALID,0.184375,
2009-04-25, 03:15:05,VALID,1001.21,VALID,0,VALID,92.7609,VALID,0,VALID,23.0006,VALID,49,VALID,0.395312,
2009-04-25, 03:16:05,VALID,1001.21,VALID,0,VALID,92.6999,VALID,0,VALID,23.0006,VALID,49,VALID,0.558594,
2009-04-25, 03:17:05,VALID,1001.26,VALID,0,VALID,92.6923,VALID,0,VALID,22.9811,VALID,49,VALID,0.679297,
2009-04-25, 03:18:05,VALID,1001.22,VALID,0,VALID,92.7228,VALID,0,VALID,22.9811,VALID,49,VALID,0.688672,
2009-04-25, 03:19:05,VALID,1001.23,VALID,0,VALID,92.6923,VALID,0,VALID,22.9811,VALID,49,VALID,0.536719,
2009-04-25, 03:20:05,VALID,1001.23,VALID,0,VALID,92.7609,VALID,0,VALID,22.9615,VALID,49,VALID,0.127344,
2009-04-25, 03:21:05,VALID,1001.25,VALID,0,VALID,92.8448,VALID,0,VALID,22.942,VALID,49,VALID,0.009375,
2009-04-25, 03:22:05,VALID,1001.24,VALID,0,VALID,92.8754,VALID,0,VALID,22.942,VALID,49,VALID,0,
2009-04-25, 03:23:05,VALID,1001.23,VALID,0,VALID,92.9669,VALID,0,VALID,22.903,VALID,49,VALID,0,
2009-04-25, 03:24:05,VALID,1001.23,VALID,0,VALID,92.9898,VALID,0,VALID,22.903,VALID,49,VALID,0.179688,
2009-04-25, 03:25:05,VALID,1001.24,VALID,0,VALID,92.9517,VALID,0,VALID,22.903,VALID,156,VALID,0.409766,
2009-04-25, 03:26:05,VALID,1001.2,VALID,0,VALID,92.9059,VALID,0,VALID,22.903,VALID,156,VALID,0.191016,
2009-04-25, 03:27:05,VALID,1001.22,VALID,0,VALID,92.8677,VALID,0,VALID,22.9225,VALID,77,VALID,0.704687,
2009-04-25, 03:28:05,VALID,1001.16,VALID,0,VALID,92.5626,VALID,0,VALID,22.942,VALID,99,VALID,0.807813,
2009-04-25, 03:29:05,VALID,1001.16,VALID,0,VALID,92.3871,VALID,0,VALID,22.9598,VALID,74,VALID,0.590625,
2009-04-25, 03:30:05,VALID,1001.17,VALID,0,VALID,92.2345,VALID,0,VALID,23.0006,VALID,72,VALID,0.344531,
2009-04-25, 03:31:05,VALID,1001.15,VALID,0,VALID,92.2726,VALID,0,VALID,22.9793,VALID,72,VALID,0.106641,
2009-04-25, 03:32:05,VALID,1001.16,VALID,0,VALID,92.326,VALID,0,VALID,22.9598,VALID,72,VALID,0.318359,
2009-04-25, 03:33:05,VALID,1001.11,VALID,0,VALID,92.3184,VALID,0,VALID,22.9811,VALID,71,VALID,0.471094,
2009-04-25, 03:34:05,VALID,1001.16,VALID,0,VALID,92.2879,VALID,0,VALID,22.9811,VALID,71,VALID,0.551953,
2009-04-25, 03:35:05,VALID,1001.11,VALID,0,VALID,92.1887,VALID,0,VALID,23.0006,VALID,101,VALID,0.757813,
2009-04-25, 03:36:05,VALID,1001.12,VALID,0,VALID,92.204,VALID,0,VALID,22.9793,VALID,102,VALID,0.533594,
2009-04-25, 03:37:05,VALID,1001.13,VALID,0,VALID,92.1277,VALID,0,VALID,23.0201,VALID,51,VALID,0.594922,
2009-04-25, 03:38:05,VALID,1001.12,VALID,0,VALID,91.9369,VALID,0,VALID,23.0006,VALID,18,VALID,1.15859,
2009-04-25, 03:39:05,VALID,1001.09,VALID,0,VALID,92.0209,VALID,0,VALID,22.9988,VALID,16,VALID,1.02539,
2009-04-25, 03:40:05,VALID,1001.11,VALID,0,VALID,92.1124,VALID,0,VALID,22.9811,VALID,17,VALID,0.976563,
2009-04-25, 03:41:05,VALID,1001.11,VALID,0,VALID,92.2421,VALID,0,VALID,22.9403,VALID,17,VALID,0.868359,
2009-04-25, 03:42:05,VALID,1001.14,VALID,0,VALID,92.3871,VALID,0,VALID,22.9208,VALID,21,VALID,0.676172,
2009-04-25, 03:43:05,VALID,1001.08,VALID,0,VALID,92.5397,VALID,0,VALID,22.9225,VALID,23,VALID,0.394922,
2009-04-25, 03:44:05,VALID,1001.05,VALID,0,VALID,92.7533,VALID,0,VALID,22.903,VALID,25,VALID,0.60625,
2009-04-25, 03:45:05,VALID,1001.05,VALID,0,VALID,92.8906,VALID,0,VALID,22.8835,VALID,27,VALID,0.614844,